Location: Étouvelles
(49.5207°N, 3.5808°E)
Time: 23:54:28
(UTC+00:00)

Cosmos 540 Rocket - Pass Details

Date: 22 September 2023
Orbit: 737 x 752 km, 74.1° (Epoch: 03 December)

Event Time Altitude Azimuth Distance (km) Brightness Sun altitude
Rises 21:38:37 0° 340° (NNW) 3,183 7.7 -34.1°
Reaches altitude 10° 21:41:08 10° 349° (NNW) 2,257 6.6 -34.3°
Enters shadow 21:43:29 24° 6° (N) 1,494 5.3 -34.6°
